| time (UTC) | temp C | wind direction | speed KPH | gust KPH | rain 1hr cm | rain 24hr cm | rain mn cm | humidity % | barometer mb |
| 20260507221524 | 12 | 207 | 3.2 | 16.1 | 0.00 | 0.30 | 0.00 | 37 | 1007.1 |
| 20260507220025 | 12 | 171 | 1.6 | 17.7 | 0.00 | 0.30 | 0.00 | 38 | 1007.0 |
| 20260507214522 | 13 | 169 | 6.4 | 19.3 | 0.00 | 0.30 | 0.00 | 36 | 1007.0 |
| 20260507213023 | 13 | 213 | 1.6 | 11.3 | 0.00 | 0.30 | 0.00 | 38 | 1006.8 |
| 20260507211533 | 13 | 243 | 6.4 | 22.5 | 0.00 | 0.30 | 0.00 | 37 | 1006.8 |
| 20260507210020 | 13 | 197 | 4.8 | 14.5 | 0.00 | 0.38 | 0.00 | 38 | 1006.8 |
| 20260507204523 | 13 | 182 | 3.2 | 12.9 | 0.00 | 0.38 | 0.00 | 38 | 1006.8 |
| 20260507203023 | 12 | 200 | 1.6 | 9.7 | 0.00 | 0.38 | 0.00 | 42 | 1006.7 |
| 20260507201518 | 13 | 159 | 1.6 | 17.7 | 0.00 | 0.38 | 0.00 | 38 | 1006.7 |
| 20260507200016 | 12 | 175 | 1.6 | 12.9 | 0.00 | 0.56 | 0.00 | 41 | 1006.9 |
| 20260507194516 | 13 | 209 | 1.6 | 19.3 | 0.00 | 0.56 | 0.00 | 38 | 1007.0 |
| 20260507193014 | 13 | 255 | 1.6 | 14.5 | 0.00 | 0.56 | 0.00 | 41 | 1007.2 |
| 20260507191514 | 13 | 191 | 4.8 | 19.3 | 0.00 | 0.56 | 0.00 | 40 | 1007.3 |
| 20260507190012 | 13 | 176 | 1.6 | 8.0 | 0.00 | 0.76 | 0.00 | 44 | 1007.3 |
| 20260507184508 | 12 | 173 | 4.8 | 19.3 | 0.00 | 0.76 | 0.00 | 45 | 1007.7 |
| 20260507183012 | 12 | 167 | 11.3 | 20.9 | 0.00 | 0.76 | 0.00 | 43 | 1007.7 |
| 20260507181507 | 12 | 180 | 1.6 | 16.1 | 0.00 | 0.76 | 0.00 | 42 | 1007.8 |
| 20260507180006 | 12 | 207 | 3.2 | 16.1 | 0.00 | 1.07 | 0.00 | 44 | 1007.9 |
| 20260507174506 | 12 | 192 | 8.0 | 16.1 | 0.00 | 1.07 | 0.00 | 43 | 1007.8 |
| 20260507173006 | 12 | 202 | 1.6 | 38.6 | 0.00 | 1.07 | 0.00 | 44 | 1007.9 |
| 20260507171612 | 12 | 165 | 4.8 | 22.5 | 0.00 | 1.07 | 0.00 | 42 | 1008.1 |
| 20260507170058 | 11 | 224 | 4.8 | 25.7 | 0.00 | 1.40 | 0.00 | 44 | 1008.4 |
| 20260507164557 | 11 | 166 | 9.7 | 32.2 | 0.00 | 1.40 | 0.00 | 44 | 1008.7 |
| 20260507163059 | 11 | 277 | 4.8 | 30.6 | 0.00 | 1.40 | 0.00 | 44 | 1008.8 |
| 20260507161556 | 11 | 196 | 3.2 | 20.9 | 0.00 | 1.40 | 0.00 | 48 | 1008.9 |
| 20260507160054 | 10 | 236 | 6.4 | 24.1 | 0.00 | 1.70 | 0.00 | 56 | 1009.2 |
| 20260507154550 | 10 | 202 | 8.0 | 19.3 | 0.00 | 1.70 | 0.00 | 49 | 1009.5 |
| 20260507153056 | 10 | 355 | 3.2 | 19.3 | 0.00 | 1.70 | 0.00 | 51 | 1009.7 |
| 20260507151548 | 10 | 299 | 3.2 | 25.7 | 0.00 | 1.70 | 0.00 | 53 | 1009.8 |
| 20260507150043 | 9 | 221 | 6.4 | 22.5 | 0.00 | 1.96 | 0.00 | 52 | 1009.7 |
| 20260507144540 | 9 | 192 | 3.2 | 14.5 | 0.00 | 1.96 | 0.00 | 56 | 1009.6 |
| 20260507143040 | 8 | 192 | 1.6 | 11.3 | 0.00 | 1.96 | 0.00 | 61 | 1009.5 |
| 20260507141542 | 8 | 190 | 1.6 | 14.5 | 0.00 | 1.96 | 0.00 | 66 | 1009.7 |
| 20260507140032 | 8 | 173 | 3.2 | 9.7 | 0.00 | 2.18 | 0.00 | 69 | 1009.7 |
| 20260507134529 | 7 | 214 | 3.2 | 12.9 | 0.00 | 2.18 | 0.00 | 70 | 1009.6 |
| 20260507133027 | 7 | 149 | 1.6 | 16.1 | 0.00 | 2.18 | 0.00 | 72 | 1009.7 |
| 20260507131526 | 7 | 320 | 0.0 | 14.5 | 0.00 | 2.18 | 0.00 | 76 | 1009.7 |
| 20260507130026 | 7 | 215 | 1.6 | 16.1 | 0.00 | 2.31 | 0.00 | 79 | 1009.5 |
| 20260507124526 | 6 | 212 | 4.8 | 22.5 | 0.00 | 2.31 | 0.00 | 85 | 1009.3 |
| 20260507123015 | 6 | 286 | 3.2 | 8.0 | 0.00 | 2.31 | 0.00 | 91 | 1009.1 |
| 20260507121513 | 6 | 190 | 3.2 | 8.0 | 0.00 | 2.31 | 0.00 | 93 | 1009.3 |
| 20260507120010 | 6 | 192 | 1.6 | 11.3 | 0.00 | 2.31 | 0.00 | 94 | 1009.1 |
| 20260507114509 | 6 | 188 | 1.6 | 8.0 | 0.00 | 2.31 | 0.00 | 94 | 1008.8 |
| 20260507113012 | 6 | 184 | 0.0 | 0.0 | 0.00 | 2.31 | 0.00 | 94 | 1008.8 |
| 20260507111507 | 6 | 184 | 0.0 | 1.6 | 0.00 | 2.31 | 0.00 | 94 | 1008.7 |
| 20260507110015 | 6 | 184 | 0.0 | 6.4 | 0.00 | 2.31 | 0.00 | 94 | 1008.7 |
| 20260507104505 | 6 | 196 | 0.0 | 0.0 | 0.00 | 2.31 | 0.00 | 94 | 1008.6 |
| 20260507103004 | 6 | 196 | 0.0 | 0.0 | 0.00 | 2.31 | 0.00 | 94 | 1008.7 |
| 20260507101504 | 6 | 196 | 0.0 | 3.2 | 0.00 | 2.31 | 0.00 | 94 | 1008.5 |
| 20260507100003 | 6 | 196 | 0.0 | 0.0 | 0.00 | 2.31 | 0.00 | 94 | 1008.4 |
| 20260507094502 | 6 | 196 | 0.0 | 0.0 | 0.00 | 2.31 | 0.00 | 94 | 1008.4 |
| 20260507093002 | 6 | 196 | 0.0 | 0.0 | 0.00 | 2.31 | 0.00 | 94 | 1008.4 |
| 20260507091501 | 6 | 196 | 0.0 | 0.0 | 0.00 | 2.31 | 0.00 | 94 | 1008.6 |
| 20260507090106 | 6 | 196 | 0.0 | 0.0 | 0.00 | 2.31 | 0.00 | 94 | 1008.5 |
| 20260507084600 | 6 | 196 | 0.0 | 3.2 | 0.00 | 2.31 | 0.00 | 94 | 1008.8 |
| 20260507083100 | 6 | 277 | 0.0 | 1.6 | 0.00 | 2.31 | 0.00 | 94 | 1008.8 |
| 20260507081559 | 6 | 277 | 0.0 | 0.0 | 0.00 | 2.31 | 0.00 | 94 | 1008.6 |
| 20260507074612 | 6 | 296 | 0.0 | 0.0 | 0.00 | 2.31 | 0.00 | 94 | 1008.9 |
| 20260507073056 | 6 | 296 | 0.0 | 0.0 | 0.00 | 2.31 | 0.00 | 94 | 1008.7 |
| 20260507071556 | 6 | 296 | 0.0 | 0.0 | 0.00 | 2.31 | 0.00 | 94 | 1008.4 |
| 20260507070111 | 6 | 296 | 0.0 | 0.0 | 0.00 | 2.34 | 0.00 | 94 | 1008.3 |
| 20260507064605 | 6 | 296 | 0.0 | 0.0 | 0.00 | 2.34 | 0.00 | 94 | 1008.4 |
| 20260507063059 | 6 | 296 | 0.0 | 0.0 | 0.00 | 2.34 | 0.00 | 94 | 1008.4 |
| 20260507061554 | 6 | 296 | 0.0 | 0.0 | 0.00 | 2.34 | 0.00 | 94 | 1008.3 |
| 20260507060052 | 5 | 296 | 0.0 | 0.0 | 0.00 | 2.34 | 0.00 | 94 | 1008.3 |
| 20260507054554 | 6 | 296 | 0.0 | 0.0 | 0.00 | 2.34 | 0.00 | 94 | 1008.6 |
| 20260507053051 | 5 | 296 | 0.0 | 0.0 | 0.00 | 2.34 | 0.00 | 94 | 1009.0 |
| 20260507051553 | 5 | 296 | 0.0 | 0.0 | 0.00 | 2.34 | 0.00 | 94 | 1008.9 |
| 20260507050048 | 5 | 296 | 0.0 | 1.6 | 0.00 | 2.39 | 0.00 | 94 | 1009.1 |
| 20260507044551 | 5 | 296 | 0.0 | 0.0 | 0.00 | 2.39 | 0.00 | 94 | 1009.0 |
| 20260507043049 | 5 | 296 | 0.0 | 3.2 | 0.00 | 2.39 | 0.00 | 94 | 1009.2 |
| 20260507041545 | 5 | 321 | 0.0 | 3.2 | 0.00 | 2.39 | 0.00 | 94 | 1008.7 |
| 20260507040042 | 5 | 306 | 0.0 | 0.0 | 0.00 | 2.49 | 2.39 | 94 | 1008.9 |
| 20260507034542 | 5 | 306 | 0.0 | 0.0 | 0.00 | 2.49 | 2.39 | 94 | 1008.7 |
| 20260507033044 | 6 | 306 | 0.0 | 0.0 | 0.00 | 2.49 | 2.39 | 94 | 1008.7 |
| 20260507031541 | 6 | 306 | 0.0 | 0.0 | 0.00 | 2.49 | 2.39 | 94 | 1009.0 |
| 20260507030043 | 6 | 306 | 0.0 | 0.0 | 0.00 | 2.49 | 2.39 | 94 | 1008.9 |
| 20260507024539 | 6 | 306 | 0.0 | 0.0 | 0.03 | 2.49 | 2.39 | 94 | 1009.0 |
| 20260507023038 | 6 | 306 | 0.0 | 0.0 | 0.05 | 2.49 | 2.39 | 94 | 1009.0 |
| 20260507021539 | 6 | 306 | 0.0 | 0.0 | 0.08 | 2.49 | 2.39 | 94 | 1009.3 |
| 20260507020042 | 6 | 306 | 0.0 | 0.0 | 0.13 | 2.49 | 2.39 | 94 | 1009.3 |
| 20260507014543 | 6 | 306 | 0.0 | 0.0 | 0.13 | 2.46 | 2.36 | 94 | 1009.2 |
| 20260507013047 | 6 | 306 | 0.0 | 3.2 | 0.10 | 2.44 | 2.34 | 94 | 1009.1 |
| 20260507011534 | 6 | 333 | 0.0 | 6.4 | 0.08 | 2.41 | 2.31 | 94 | 1008.9 |
| 20260507010037 | 6 | 261 | 1.6 | 6.4 | 0.08 | 2.36 | 2.26 | 94 | 1009.0 |
| 20260507004532 | 6 | 251 | 0.0 | 4.8 | 0.10 | 2.34 | 2.24 | 94 | 1008.9 |
| 20260507003031 | 6 | 246 | 0.0 | 4.8 | 0.10 | 2.34 | 2.24 | 94 | 1008.6 |
| 20260507001533 | 6 | 243 | 0.0 | 6.4 | 0.13 | 2.34 | 2.24 | 94 | 1008.3 |
| 20260507000029 | 6 | 238 | 0.0 | 8.0 | 0.08 | 2.29 | 2.18 | 94 | 1008.1 |
| 20260506234535 | 6 | 224 | 0.0 | 3.2 | 0.03 | 2.24 | 2.13 | 94 | 1008.0 |
| 20260506233046 | 6 | 274 | 1.6 | 6.4 | 0.05 | 2.24 | 2.13 | 94 | 1007.4 |
| 20260506231529 | 6 | 280 | 0.0 | 12.9 | 0.03 | 2.21 | 2.11 | 94 | 1007.2 |
| 20260506230028 | 6 | 329 | 1.6 | 8.0 | 0.03 | 2.21 | 2.11 | 94 | 1007.1 |
| 20260506224526 | 6 | 303 | 0.0 | 14.5 | 0.03 | 2.21 | 2.11 | 94 | 1007.0 |
| 20260506223024 | 6 | 242 | 1.6 | 11.3 | 0.00 | 2.18 | 2.08 | 94 | 1006.8 |